Sturgeon Bay, WI

2:26 AM CST on February 24, 2018 (GMT -0600)
Door County Cherryland

Weather History for KSUE - April, 2012

Change the Weather History Date:

Wednesday, April 11, 2012

  Actual Average Record
Temperature  
Mean Temperature 39 °F -  
Max Temperature 46 °F 49 °F 81 °F (1977)
Min Temperature 30 °F 29 °F 12 °F (1973)
Degree Days  
Heating Degree Days 26    
Moisture  
Dew Point 27 °F    
Average Humidity 62    
Maximum Humidity 87    
Minimum Humidity 50    
Precipitation  
Precipitation 0.00 in - - ()
Sea Level Pressure  
Sea Level Pressure 30.27 in    
Wind  
Wind Speed 10 mph (North)    
Max Wind Speed 15 mph    
Max Gust Speed 18 mph    
Visibility 10 miles    
Events      
Averages and records for this station are not official NWS values.
T = Trace of Precipitation, MM = Missing Value Source: NWS Daily Summary

Daily Weather History Graph

Daily Weather History Graph

Search for Another Location

Airport or City:

Trip Planner

Search our weather history database for the weather conditions in past years. The results will help you decide how hot, cold, wet, or windy it might be!

Date:

Astronomy

Apr. 11, 2012 Rise Set
Actual Time 6:11 AM CDT 7:30 PM CDT
Civil Twilight 5:41 AM CDT 8:00 PM CDT
Nautical Twilight 5:04 AM CDT 8:37 PM CDT
Astronomical Twilight 4:26 AM CDT 9:16 PM CDT
Moon 12:35 AM CDT (4/11) 9:49 AM CDT (4/11)
Length of Visible Light 14h 19m
Length of Day
13h 19m
Waning Gibbous, 69% of the Moon is Illuminated
Apr 11
Waning Gibbous
Apr 13
Last Quarter
Apr 21
New
Apr 29
First Quarter
May 5
Full

Hourly Weather History & Observations

Time (CDT) Temp. Windchill Dew Point Humidity Pressure Visibility Wind Dir Wind Speed Gust Speed Precip Events Conditions
12:15 AM 35.6 °F 28.0 °F 19.4 °F 52% 30.15 in 10.0 mi NW 10.4 mph - N/A   Mostly Cloudy
12:55 AM - - - N/A% 30.15 in 10.0 mi NW 15.0 mph 18.4 mph N/A   Overcast
1:15 AM 35.6 °F 28.0 °F 19.4 °F 52% 30.16 in 10.0 mi NW 10.4 mph - N/A   Overcast
1:35 AM - - - N/A% 30.15 in 10.0 mi NW 10.4 mph - N/A   Overcast
1:55 AM - - - N/A% 30.15 in 10.0 mi NW 11.5 mph - N/A   Mostly Cloudy
2:15 AM - - - N/A% 30.15 in 10.0 mi NNW 15.0 mph - N/A   Mostly Cloudy
2:35 AM - - - N/A% 30.15 in 10.0 mi NNW 13.8 mph - N/A   Overcast
2:55 AM - - - N/A% 30.16 in 10.0 mi NNW 12.7 mph - N/A   Overcast
3:15 AM - - - N/A% 30.16 in 10.0 mi NNW 13.8 mph - N/A   Overcast
3:55 AM - - - N/A% 30.17 in 10.0 mi NNW 12.7 mph - N/A   Overcast
4:15 AM 35.6 °F 28.0 °F 24.8 °F 65% 30.18 in 10.0 mi NNW 10.4 mph - N/A   Overcast
4:35 AM 35.6 °F 27.5 °F 24.8 °F 65% 30.19 in 10.0 mi NNW 11.5 mph - N/A   Overcast
4:55 AM 35.6 °F 27.5 °F 24.8 °F 65% 30.20 in 10.0 mi NNW 11.5 mph - N/A   Overcast
5:15 AM 35.6 °F 27.5 °F 24.8 °F 65% 30.20 in 10.0 mi North 11.5 mph - N/A   Overcast
5:35 AM 35.6 °F 28.0 °F 24.8 °F 65% 30.21 in 10.0 mi NNW 10.4 mph - N/A   Mostly Cloudy
5:55 AM 35.6 °F 28.0 °F 24.8 °F 65% 30.22 in 10.0 mi North 10.4 mph - N/A   Clear
6:15 AM 33.8 °F 25.8 °F 26.6 °F 75% 30.23 in 10.0 mi North 10.4 mph - N/A   Clear
6:35 AM 33.8 °F 26.4 °F 26.6 °F 75% 30.24 in 10.0 mi North 9.2 mph - N/A   Clear
6:55 AM 35.6 °F 29.9 °F 26.6 °F 70% 30.25 in 10.0 mi North 6.9 mph - N/A   Clear
7:35 AM 37.4 °F 30.3 °F 28.4 °F 70% 30.27 in 10.0 mi NNW 10.4 mph - N/A   Clear
7:55 AM 37.4 °F 29.8 °F 26.6 °F 65% 30.27 in 10.0 mi North 11.5 mph - N/A   Clear
8:35 AM 37.4 °F 29.8 °F 28.4 °F 70% 30.29 in 10.0 mi North 11.5 mph - N/A   Clear
8:55 AM - - - N/A% 30.29 in 10.0 mi North 13.8 mph - N/A   Clear
9:15 AM 39.2 °F 31.2 °F 30.2 °F 70% 30.30 in 10.0 mi North 13.8 mph - N/A   Clear
9:35 AM 39.2 °F 32.5 °F 28.4 °F 65% 30.31 in 10.0 mi North 10.4 mph - N/A   Clear
9:55 AM 41.0 °F 34.7 °F 30.2 °F 65% 30.31 in 10.0 mi NNW 10.4 mph - N/A   Clear
10:15 AM 42.8 °F 37.0 °F 30.2 °F 61% 30.32 in 10.0 mi NNW 10.4 mph - N/A   Clear
10:35 AM 42.8 °F 36.6 °F 30.2 °F 61% 30.32 in 10.0 mi NNW 11.5 mph - N/A   Clear
10:55 AM - - - N/A% 30.32 in 10.0 mi North 13.8 mph 17.3 mph N/A   Clear
11:15 AM - - - N/A% 30.32 in 10.0 mi NNW 13.8 mph - N/A   Clear
11:35 AM 42.8 °F 37.0 °F 28.4 °F 57% 30.32 in 10.0 mi North 10.4 mph - N/A   Clear
11:55 AM 44.6 °F 38.8 °F 28.4 °F 53% 30.33 in 10.0 mi North 11.5 mph - N/A   Mostly Cloudy
12:15 PM 42.8 °F 38.0 °F 28.4 °F 57% 30.32 in 10.0 mi North 8.1 mph - N/A   Overcast
12:35 PM 44.6 °F 40.7 °F 28.4 °F 53% 30.32 in 10.0 mi NNE 6.9 mph - N/A   Overcast
12:55 PM 44.6 °F 40.7 °F 28.4 °F 53% 30.32 in 10.0 mi North 6.9 mph - N/A   Overcast
1:15 PM 44.6 °F 40.2 °F 28.4 °F 53% 30.32 in 10.0 mi North 8.1 mph - N/A   Overcast
1:35 PM 44.6 °F 39.7 °F 28.4 °F 53% 30.32 in 10.0 mi North 9.2 mph - N/A   Overcast
1:55 PM 44.6 °F 39.7 °F 28.4 °F 53% 30.32 in 10.0 mi North 9.2 mph - N/A   Overcast
2:15 PM 44.6 °F 40.2 °F 28.4 °F 53% 30.31 in 10.0 mi NNW 8.1 mph - N/A   Overcast
2:35 PM 44.6 °F 40.2 °F 28.4 °F 53% 30.31 in 10.0 mi NNW 8.1 mph - N/A   Overcast
2:55 PM 44.6 °F 40.7 °F 28.4 °F 53% 30.31 in 10.0 mi NW 6.9 mph - N/A   Overcast
3:15 PM 46.4 °F 41.9 °F 28.4 °F 50% 30.31 in 10.0 mi North 9.2 mph - N/A   Overcast
3:35 PM 46.4 °F 42.4 °F 28.4 °F 50% 30.31 in 10.0 mi North 8.1 mph - N/A   Overcast
3:55 PM 46.4 °F 43.5 °F 28.4 °F 50% 30.31 in 10.0 mi NNE 5.8 mph - N/A   Mostly Cloudy
4:15 PM 46.4 °F 44.3 °F 28.4 °F 50% 30.31 in 10.0 mi NNW 4.6 mph - N/A   Scattered Clouds
4:35 PM 46.4 °F 43.5 °F 28.4 °F 50% 30.31 in 10.0 mi North 5.8 mph - N/A   Mostly Cloudy
4:55 PM 46.4 °F 41.9 °F 30.2 °F 53% 30.31 in 10.0 mi ESE 9.2 mph - N/A   Mostly Cloudy
5:15 PM 44.6 °F 40.2 °F 28.4 °F 53% 30.31 in 10.0 mi East 8.1 mph - N/A   Mostly Cloudy
5:35 PM 44.6 °F 40.2 °F 28.4 °F 53% 30.31 in 10.0 mi SE 8.1 mph - N/A   Partly Cloudy
5:55 PM 42.8 °F 38.0 °F 28.4 °F 57% 30.30 in 10.0 mi ESE 8.1 mph - N/A   Clear
6:15 PM 42.8 °F 38.0 °F 26.6 °F 53% 30.30 in 10.0 mi East 8.1 mph - N/A   Clear
6:35 PM 42.8 °F 38.0 °F 26.6 °F 53% 30.30 in 10.0 mi ESE 8.1 mph - N/A   Clear
6:55 PM 41.0 °F 35.2 °F 26.6 °F 57% 30.29 in 10.0 mi East 9.2 mph - N/A   Clear
7:15 PM 39.2 °F 34.2 °F 26.6 °F 61% 30.29 in 10.0 mi East 6.9 mph - N/A   Clear
7:35 PM 39.2 °F 35.0 °F 26.6 °F 61% 30.29 in 10.0 mi ESE 5.8 mph - N/A   Clear
7:55 PM 37.4 °F 32.8 °F 26.6 °F 65% 30.29 in 10.0 mi ESE 5.8 mph - N/A   Clear
8:15 PM 37.4 °F 33.8 °F 28.4 °F 70% 30.29 in 10.0 mi ESE 4.6 mph - N/A   Clear
8:35 PM 37.4 °F 34.9 °F 28.4 °F 70% 30.29 in 10.0 mi ESE 3.5 mph - N/A   Clear
8:55 PM 37.4 °F - 28.4 °F 70% 30.29 in 10.0 mi Calm Calm - N/A   Clear
9:15 PM 37.4 °F 34.9 °F 28.4 °F 70% 30.29 in 10.0 mi ESE 3.5 mph - N/A   Clear
9:35 PM 37.4 °F 34.9 °F 28.4 °F 70% 30.29 in 10.0 mi ESE 3.5 mph - N/A   Clear
9:55 PM 35.6 °F 31.7 °F 28.4 °F 75% 30.29 in 10.0 mi ESE 4.6 mph - N/A   Clear
10:15 PM 35.6 °F 32.8 °F 28.4 °F 75% 30.29 in 10.0 mi ESE 3.5 mph - N/A   Clear
10:35 PM 35.6 °F 32.8 °F 28.4 °F 75% 30.29 in 10.0 mi SE 3.5 mph - N/A   Clear
10:55 PM 33.8 °F - 26.6 °F 75% 30.29 in 10.0 mi Calm Calm - N/A   Clear
11:15 PM 32.0 °F - 28.4 °F 87% 30.28 in 10.0 mi Calm Calm - N/A   Clear
11:35 PM 32.0 °F 28.7 °F 28.4 °F 87% 30.28 in 10.0 mi SE 3.5 mph - N/A   Clear
11:55 PM 30.2 °F - 26.6 °F 86% 30.28 in 10.0 mi Calm Calm - N/A   Clear